Weather History for KDAL - April, 2014

Change the Weather History Date:

Wednesday, April 2, 2014

  Actual Average Record
Temperature  
Mean Temperature 76 °F -  
Max Temperature 82 °F 70 °F 91 °F (2006)
Min Temperature 70 °F 52 °F 45 °F (2005)
Cooling Degree Days 11    
Growing Degree Days 26 (Base 50)    
Moisture  
Dew Point 65 °F    
Average Humidity 72    
Maximum Humidity 84    
Minimum Humidity 54    
Precipitation  
Precipitation 0.00 in - - ()
Sea Level Pressure  
Sea Level Pressure 29.76 in    
Wind  
Wind Speed 15 mph (South)    
Max Wind Speed 21 mph    
Max Gust Speed 31 mph    
Visibility 8 miles    
Events      
Averages and records for this station are not official NWS values.
T = Trace of Precipitation, MM = Missing Value Source: NWS Daily Summary

Daily Weather History Graph

Daily Weather History Graph

Search for Another Location

Airport or City:

Trip Planner

Search our weather history database for the weather conditions in past years. The results will help you decide how hot, cold, wet, or windy it might be!

Date:

Astronomy

Apr. 02, 2014 Rise Set
Actual Time 7:14 AM CDT 7:48 PM CDT
Civil Twilight 6:49 AM CDT 8:13 PM CDT
Nautical Twilight 6:19 AM CDT 8:42 PM CDT
Astronomical Twilight 5:50 AM CDT 9:12 PM CDT
Moon 9:08 AM CDT (4/2) 11:02 PM CDT (4/2)
Length of Visible Light 13h 24m
Length of Day
12h 34m
Waxing Crescent, 10% of the Moon is Illuminated
Apr 2
Waxing Crescent
Apr 7
First Quarter
Apr 15
Full
Apr 22
Last Quarter
Apr 29
New

Hourly Weather History & Observations

Time (CDT) Temp. Heat Index Dew Point Humidity Pressure Visibility Wind Dir Wind Speed Gust Speed Precip Events Conditions
12:53 AM 72.0 °F - 64.9 °F 78% 29.83 in 8.0 mi SSE 18.4 mph - N/A   Overcast
1:53 AM 71.1 °F - 64.9 °F 81% 29.81 in 8.0 mi SSE 15.0 mph - N/A   Overcast
2:53 AM 71.1 °F - 64.9 °F 81% 29.81 in 8.0 mi South 13.8 mph - N/A   Overcast
3:12 AM 71.1 °F - 64.9 °F 81% 29.83 in 8.0 mi South 12.7 mph - N/A   Overcast
3:53 AM 71.1 °F - 64.9 °F 81% 29.80 in 8.0 mi South 11.5 mph - N/A   Overcast
4:53 AM 70.0 °F - 64.9 °F 84% 29.79 in 8.0 mi South 11.5 mph - N/A   Overcast
5:53 AM 71.1 °F - 64.9 °F 81% 29.79 in 8.0 mi South 12.7 mph - N/A   Mostly Cloudy
7:53 AM 72.0 °F - 66.0 °F 81% 29.81 in 7.0 mi South 16.1 mph - N/A   Overcast
8:53 AM 73.0 °F - 66.0 °F 79% 29.83 in 6.0 mi South 15.0 mph 21.9 mph N/A   Haze
9:53 AM 73.0 °F - 66.0 °F 79% 29.84 in 6.0 mi South 11.5 mph - N/A   Haze
10:53 AM 75.0 °F - 66.9 °F 76% 29.83 in 6.0 mi SSE 12.7 mph - N/A   Haze
11:53 AM 77.0 °F - 66.9 °F 71% 29.81 in 7.0 mi South 15.0 mph - N/A   Overcast
12:53 PM 77.0 °F - 68.0 °F 74% 29.79 in 7.0 mi South 12.7 mph - N/A   Overcast
1:53 PM 81.0 °F 82.7 °F 64.9 °F 58% 29.76 in 8.0 mi South 18.4 mph 25.3 mph N/A   Overcast
2:53 PM 81.0 °F 82.7 °F 64.9 °F 58% 29.74 in 8.0 mi South 15.0 mph - N/A   Overcast
3:53 PM 82.0 °F 83.4 °F 64.0 °F 54% 29.71 in 6.0 mi South 20.7 mph 31.1 mph N/A   Haze
4:53 PM 80.6 °F 82.3 °F 64.4 °F 58% 29.71 in 10.0 mi SSE 19.6 mph 27.6 mph N/A   Mostly Cloudy
5:53 PM 79.0 °F - 64.0 °F 60% 29.70 in 6.0 mi South 20.7 mph 27.6 mph N/A   Haze
6:53 PM 77.0 °F - 64.0 °F 64% 29.69 in 7.0 mi South 16.1 mph - N/A   Overcast
7:53 PM 75.9 °F - 64.0 °F 67% 29.68 in 7.0 mi SSE 15.0 mph - N/A   Mostly Cloudy
8:53 PM 75.9 °F - 64.9 °F 69% 29.68 in 8.0 mi SSE 17.3 mph - N/A   Overcast
9:53 PM 75.9 °F - 64.9 °F 69% 29.70 in 8.0 mi SE 13.8 mph - N/A   Mostly Cloudy
10:53 PM 75.0 °F - 64.9 °F 71% 29.71 in 8.0 mi South 16.1 mph - N/A   Overcast
11:53 PM 75.0 °F - 66.0 °F 73% 29.71 in 8.0 mi South 18.4 mph - N/A   Mostly Cloudy